Location: Cazavet
(43.0017°N, 1.0431°E)
Time: 09:10:34
(UTC+00:00)

Nadezhda 3 Rocket - Pass Details

Date: 18 January 2026
Orbit: 956 x 998 km, 82.9° (Epoch: 10 February)

Event Time Altitude Azimuth Distance (km) Brightness Sun altitude
Rises 05:30:09 0° 351° (N) 3,679 6.8 -20.3°
Reaches altitude 10° 05:32:39 10° 351° (N) 2,733 6.1 -19.8°
Maximum altitude 05:38:55 82° 265° (W) 997 3.9 -18.7°
Drops below altitude 10° 05:45:14 10° 178° (S) 2,743 6.5 -17.6°
Sets 05:47:45 0° 177° (S) 3,692 7.2 -17.1°
